Regional Weather Roundup
Issued by NWS

Home | Current Version | Previous Version | Graphics & Text | Print | Product List | Glossary On
Versions: 1 2 3 4 5 6 7 8 9 10 11 12 13 14 15 16 17 18 19 20 21 22 23 24 25 26 27
000
ASUS45 KBOI 191310
RWRID

IDAHO REGIONAL WEATHER ROUNDUP
NATIONAL WEATHER SERVICE BOISE ID
700 AM MDT THU OCT 19 2017

NOTE: "FAIR" INDICATES FEW OR NO CLOUDS BELOW 12000 FEET
WITH NO SIGNIFICANT WEATHER AND/OR OBSTRUCTIONS TO VISIBILITY

IDZ012-014-191400-
SOUTHWEST IDAHO


CITY           SKY/WX    TMP DP  RH WIND       PRES   REMARKS
BOISE          CLEAR     48  27  44 E5        29.84S
CALDWELL       CLEAR     40  26  57 E5        29.83F
MOUNTAIN HOME  CLEAR     47  25  43 E20       29.86S
$$

IDZ016-017-191400-
SOUTHCENTRAL IDAHO


CITY           SKY/WX    TMP DP  RH WIND       PRES   REMARKS
BURLEY         PTCLDY    36  24  62 NE5       29.93F WCI  32
JEROME         CLEAR     37  26  64 NE15      29.93F WCI  28
TWIN FALLS     CLEAR     46  17  31 NE3       29.93S
$$

IDZ019>023-191400-
SOUTHEAST IDAHO


CITY           SKY/WX    TMP DP  RH WIND       PRES   REMARKS
IDAHO FALLS    CLEAR     31  26  82 N7        30.01S WCI  24
POCATELLO      CLOUDY    33  26  75 NE3       29.99S
REXBURG        CLOUDY    31  26  82 NE3       30.01F
$$

IDZ006-010-011-018-031-032-191400-
CENTRAL IDAHO MOUNTAINS


CITY           SKY/WX    TMP DP  RH WIND       PRES   REMARKS
MCCALL         PTCLDY    32  29  88 CALM      29.86F
HAILEY         CLEAR     36  25  64 NW12G21   30.02F WCI  27
STANLEY          N/A     25  20  81 CALM      30.00F
SALMON         CLOUDY    31  25  78 CALM      29.89F
CHALLIS        PTCLDY    31  23  72 CALM      29.95S
$$

IDZ002-004-006-007-026-191400-
NORTHERN IDAHO


CITY           SKY/WX    TMP DP  RH WIND       PRES   REMARKS
LEWISTON       CLOUDY    44  43  96 CALM      29.70S
LOWELL           N/A     40  39  97 CALM      29.78F
COEUR D`ALENE  CLOUDY    56  39  53 S7        29.65S
MULLAN PASS    MOCLDY    46  23  40 SW15G29   29.75S
$$




USA.gov is the U.S. government's official web portal to all federal, state and local government web resources and services.